Regional Weather Roundup
Issued by NWS

Home | Current Version | Previous Version | Text Only | Print | Product List | Glossary On
Versions: 1 2 3 4 5 6 7 8 9 10 11 12 13 14 15 16 17 18 19 20 21 22 23 24 25 26 27 28 29 30 31 32 33 34 35 36 37 38 39 40 41 42 43 44 45 46 47 48 49 50
000
ASUS44 KLIX 250412
RWRLA
LOUISIANA WEATHER ROUNDUP
NATIONAL WEATHER SERVICE NEW ORLEANS LA
1100 PM CDT SUN JUL 24 2016

NOTE: "FAIR" INDICATES FEW OR NO CLOUDS BELOW 12,000 FEET WITH NO
      SIGNIFICANT WEATHER AND/OR OBSTRUCTIONS TO VISIBILITY.
      SKY/WX - SKY CONDITION AND SIGNIFICANT WEATHER.
      TMP - AIR TEMPERATURE.    DP   - DEWPOINT TEMPERATURE.
      RH  - RELATIVE HUMIDITY.  PRES - PRESSURE.
      HX  - HEAT INDEX.         WCI  - WIND CHILL INDEX.

*  THESE STATIONS ARE NOT NWS OR FAA STATIONS AND ARE NOT UNDER
   NWS QUALITY CONTROL.

LAZ040-048-061>063-065-066-069-250500-
SOUTHEAST LOUISIANA

CITY           SKY/WX    TMP DP  RH WIND       PRES   REMARKS
N.O. AUDUBON   NOT AVBL
N.O. INTL ARPT CLOUDY    83  78  85 SE3       29.97S
N.O. LAKEFRONT MOCLDY    83  76  79 SE7       29.98S
N.O. DOWNTOWN* FAIR      83  75  77 VRB6      29.98S
RESERVE*       FAIR      79  77  93 CALM      29.98S
SLIDELL        CLOUDY    78  76  93 CALM      29.98R
BATON ROUGE    CLOUDY    78  73  84 E3        29.99R
BOOTHVILLE     CLOUDY    81  77  88 CALM      29.98S
BELLE CHASSE   CLOUDY    79  77  94 CALM      29.97S
BOGALUSA*      FAIR      77  74  88 CALM      30.00S
GALLIANO*      LGT RAIN  73  73  99 CALM      29.97F
NEW ROADS*     FAIR      77  76  94 E5        29.98S
GONZALES*      FAIR      76  76 100 CALM      29.98R
HAMMOND*       CLOUDY    77  72  83 CALM      29.98R
HOUMA*         MOCLDY    77  76  95 CALM      29.98R
PORT FOURCHON* CLEAR     84  75  74 CALM      29.97S

$$

LAZ041-044-053-054-250500-
SOUTHWEST LOUISIANA

CITY           SKY/WX    TMP DP  RH WIND       PRES   REMARKS
LAKE CHARLES   MOCLDY    80  76  87 NE3       29.97S
LAFAYETTE      CLOUDY    80  77  90 CALM      29.97F
PATTERSON      CLOUDY    78  77  96 CALM      29.98S
SALT POINT       N/A     81  76  84 CALM      29.95S
NEW IBERIA     CLOUDY    80  77  90 CALM      29.98S
CHENAULT AIRPK MOCLDY    78  75  91 CALM      29.98R

$$

LAZ027-028-250500-
CENTRAL LOUISIANA

CITY           SKY/WX    TMP DP  RH WIND       PRES   REMARKS
FORT POLK      MOCLDY    77  74  91 NE3       29.99R
ALEXANDRIA INT CLOUDY    76  74  93 CALM      29.96F
ALEXANDRIA     CLOUDY    77  75  93 CALM      29.98S

$$

LAZ001-002-250500-
NORTHWEST LOUISIANA

CITY           SKY/WX    TMP DP  RH WIND       PRES   REMARKS
SHREVEPORT     CLOUDY    76  73  91 SW7       29.96S
BARKSDALE AFB  CLOUDY    74  73  93 CALM      29.96S
DTN SHREVEPORT CLOUDY    78  71  79 CALM      29.96S

$$

LAZ014-016-250500-
NORTHEAST LOUISIANA

CITY           SKY/WX    TMP DP  RH WIND       PRES   REMARKS
MONROE         CLOUDY    75  75 100 CALM      29.98S
TALLULAH       MOCLDY    78  75  90 CALM      29.97F

$$




USA.gov is the U.S. government's official web portal to all federal, state and local government web resources and services.